Hourly Data Report for August 18, 2021

FLIN FLON
MANITOBA
Current Station Operator: ECCC - MSC

54°41'00.000" N
101°41'00.000" W
303.90 m
5050919
71954
WFO

Download Data

Hourly Data (August 2021)
Hourly Data Report for August 18, 2021
TIME
LST
Temp Definition
°C
Dew Point Definition
°C
Rel Hum Definition
%
Precip. Amount Definition
mm

Wind Dir Definition
10's deg

Wind Spd Definition
km/h
Visibility Definition
km
Stn Press Definition
kPa
Hmdx Definition


Wind Chill Definition


Weather Definition


00:00 14.4 9.3 71 0.0 31 9   97.89     LegendNANA
01:00 14.0 9.3 74 0.0 32 9   97.90     LegendNANA
02:00 13.7 9.7 77 0.0 33 9   97.93     LegendNANA
03:00 13.3 9.8 80 0.0 34 10   97.94     LegendNANA
04:00 13.0 9.8 81 0.0 35 11   97.97     LegendNANA
05:00 12.6 9.4 81 0.0 36 9   98.05     LegendNANA
06:00 11.8 9.3 85 0.0 36 6   98.15     LegendNANA
07:00 12.0 9.7 86 0.0 36 8   98.18     LegendNANA
08:00 12.9 9.1 78 0.0 1 10   98.24     LegendNANA
09:00 14.4 9.0 70 0.0 6 8   98.22     LegendNANA
10:00 15.1 7.3 60 0.0 3 11   98.24     LegendNANA
11:00 15.4 7.0 57 0.0 35 9   98.30     LegendNANA
12:00 15.6 6.8 56 0.0 35 11   98.31     LegendNANA
13:00 16.8 7.2 53 0.0 29 10   98.29     LegendNANA
14:00 16.8 7.0 52 0.0 32 9   98.29     LegendNANA
15:00 17.0 6.4 50 0.0 33 8   98.32     LegendNANA
16:00 16.8 6.4 50 0.0 3 8   98.28     LegendNANA
17:00 17.0 6.4 49 0.0 31 9   98.27     LegendNANA
18:00 17.0 6.7 51 0.0 4 4   98.31     LegendNANA
19:00 16.6 7.0 53 0.0 6 4   98.30     LegendNANA
20:00 15.1 7.0 58 0.0 11 4   98.33     LegendNANA
21:00 13.5 7.4 67 0.0 11 2   98.34     LegendNANA
22:00 13.5 7.4 67 0.0 0 1   98.33     LegendNANA
23:00 13.4 7.4 67 0.0 8 2   98.31     LegendNANA

Notes on Data Quality.

Legend

  • E = Estimated
  • M = Missing
  • NA = Not Available*
  • [empty] = Indicates an unobserved value
Date modified: